sat.trackr.live / text

‹ back to catalog

STARLINK-1795

NORAD 46696 · 2020-073AC

PAYLOAD ACTIVE UNKNOWN

§ Identity

Operator
Country
US
Launch date
2020-10-18
Launch site
AFETR
Launch vehicle
Mass (kg)
RCS (m²)

Purposes: comms

External: N2YO · Heavens-Above · Gunter

§ Orbital elements

Epoch: 2026-06-13T19:54:53.568288Z

Period
87.58 min
Inclination
53.0167°
Eccentricity
0.0009172
Mean motion
16.44119597 rev/d
Perigee alt
148.9 km
Apogee alt
160.9 km
Semi-major
6,533.0 km
B*
3.7616e-4
RAAN
55.8567°
Arg perigee
265.5745°
Mean anomaly
94.4255°
Rev number
31,321

§ Raw data

STARLINK-17951 46696U 20073AC  26164.82978667  .11717806  12466-4  37616-3 0  99952 46696  53.0167  55.8567 0009172 265.5745  94.4255 16.44119597313210

JSON: /api/v1/satellites/46696 · /tle

For live sub-satellite position, see the globe view (requires WebGL).

§ Visibility from observer

Set your observer location to see the next 7 days of passes ≥ 10°. The values pass through the URL so the page stays shareable.

No JS? Fill the form by hand. The geolocation button needs JavaScript.